Location: Newark
(62.0631°N, 6.8261°W)
Time: 03:05:32
(UTC+00:00)

N. Korean satellite - Visible Passes

Search period start: 14 November 2019 00:00
Search period end: 24 November 2019 00:00
Orbit: 456 x 506 km, 97.2° (Epoch: 12 November)

Date Brightness Start Highest point End Pass type
(mag) Time Alt. Az. Time Alt. Az. Time Alt. Az.
14 Nov 10.1 05:06:30 10° NE 05:08:21 13° E 05:10:11 10° ESE visible
14 Nov 7.0 06:38:42 10° NNE 06:42:27 69° ESE 06:46:11 10° S visible
14 Nov 7.3 17:24:17 10° S 17:27:54 60° WSW 17:31:36 10° NNW visible
14 Nov 10.2 19:00:53 10° W 19:02:06 11° W 19:03:20 10° WNW visible
15 Nov 8.0 06:13:24 10° NNE 06:16:59 42° E 06:20:33 10° S visible
15 Nov 6.6 16:58:49 10° SSE 17:02:28 84° ENE 17:06:13 10° NNW visible
15 Nov 9.7 18:33:51 10° SW 18:36:24 18° W 18:38:58 10° NW visible
16 Nov 9.0 05:48:12 10° NNE 05:51:26 27° E 05:54:38 10° SSE visible
16 Nov 6.8 07:21:24 10° N 07:25:04 53° WNW 07:28:42 10° SW visible
16 Nov 6.8 16:33:33 10° SE 16:37:08 52° ENE 16:40:46 10° N visible
16 Nov 9.0 18:07:35 10° SSW 18:10:45 27° W 18:13:59 10° NNW visible
17 Nov 9.7 05:23:12 10° NE 05:25:48 18° E 05:28:23 10° SE visible
17 Nov 6.6 06:55:58 10° NNE 06:59:43 85° WNW 07:03:27 10° SSW visible
17 Nov 8.0 17:41:41 10° S 17:45:12 42° W 17:48:47 10° NNW visible
18 Nov 10.2 04:58:49 10° ENE 05:00:05 11° E 05:01:21 10° ESE visible
18 Nov 7.3 06:30:35 10° NNE 06:34:18 59° ESE 06:37:58 10° S visible
18 Nov 7.0 17:16:03 10° S 17:19:43 70° WSW 17:23:28 10° NNW visible
18 Nov 10.1 18:52:01 10° WSW 18:53:50 13° W 18:55:41 10° NW visible
19 Nov 8.3 06:05:17 10° NNE 06:08:47 36° E 06:12:14 10° SSE visible
19 Nov 7.1 07:38:44 10° N 07:42:14 39° WNW 07:45:43 10° SW visible
19 Nov 6.6 16:50:39 10° SSE 16:54:19 72° ENE 16:58:03 10° NNW visible
19 Nov 9.5 18:25:21 10° SW 18:28:09 20° W 18:30:59 10° NW visible
20 Nov 9.2 05:40:09 10° NE 05:43:12 23° E 05:46:14 10° SE visible
20 Nov 6.6 07:13:13 10° NNE 07:16:56 61° WNW 07:20:35 10° SSW visible
20 Nov 6.9 16:25:26 10° SE 16:28:59 45° ENE 16:32:35 10° N visible
20 Nov 8.7 17:59:12 10° SSW 18:02:31 31° W 18:05:54 10° NNW visible
21 Nov 9.9 05:15:15 10° NE 05:17:32 15° E 05:19:47 10° ESE visible
21 Nov 6.7 06:47:46 10° NNE 06:51:33 83° ESE 06:55:15 10° SSW visible
21 Nov 7.7 17:33:22 10° S 17:36:59 50° W 17:40:39 10° NNW visible
22 Nov 7.6 06:22:25 10° NNE 06:26:05 50° E 06:29:41 10° S visible
22 Nov 7.5 07:56:04 10° N 07:59:20 30° WNW 08:02:35 10° WSW visible
22 Nov 6.7 17:07:48 10° SSE 17:11:31 82° WSW 17:15:17 10° NNW visible
22 Nov 9.9 18:43:18 10° WSW 18:45:32 15° W 18:47:47 10° NW visible
23 Nov 8.6 05:57:09 10° NNE 06:00:32 31° E 06:03:52 10° SSE visible
23 Nov 6.9 07:30:30 10° N 07:34:04 44° WNW 07:37:36 10° SW visible
23 Nov 6.6 16:42:27 10° SSE 16:46:07 62° ENE 16:49:51 10° NNW visible
23 Nov 9.3 18:16:50 10° SW 18:19:51 23° W 18:22:54 10° NW visible
